Regional Weather Roundup
Issued by NWS

Home | Current Version | Previous Version | Text Only | Print | Product List | Glossary On
Versions: 1 2 3 4 5 6 7 8 9 10 11 12 13 14 15 16 17 18 19 20 21 22 23 24 25 26 27 28
000
ASUS42 KFFC 271803
RWRGA
WEATHER ROUNDUP FOR GEORGIA
NATIONAL WEATHER SERVICE PEACHTREE CITY GA
200 PM EDT TUE SEP 27 2016

NOTE: "FAIR" INDICATES FEW OR NO CLOUDS BELOW 12,000 FEET WITH NO
SIGNIFICANT WEATHER AND/OR OBSTRUCTIONS TO VISIBILITY.

* = USE WITH CAUTION. THE STATIONS MARKED WITH AN ASTERISK MAY NOT
REPORT WEATHER SUCH AS PRECIPITATION, FOG, OR THUNDER AND ARE NOT
QUALITY CONTROLLED BY NWS.

THE REMARK "TC" DENOTES TEMPERATURE READING IN DEGREES CELSIUS.

GAZ001>058-271900-
NORTH GEORGIA

CITY           SKY/WX    TMP DP  RH WIND       PRES   REMARKS
ATLANTA        PTSUNNY   85  66  53 W9        29.94F
6HR MIN TEMP:  70; 6HR MAX TEMP:  87;

ATHENS         SUNNY     87  69  54 VRB3      29.93F HX  91
6HR MIN TEMP:  66; 6HR MAX TEMP:  87;

CHAMBLEE       SUNNY     87  64  46 SW10G17   29.94F
6HR MIN TEMP:  69; 6HR MAX TEMP:  87;

PEACHTREE CITY LGT RAIN  85  67  54 MISG      29.95F
6HR MIN TEMP:  65; 6HR MAX TEMP:  85; 6HR PCP: TRACE;

ROME           PTSUNNY   79  67  66 CALM      29.94F
6HR MIN TEMP:  66; 6HR MAX TEMP:  81;

WEST ATLANTA   MOSUNNY   85  64  49 VRB6      29.93F
6HR MIN TEMP:  68; 6HR MAX TEMP:  86;

GAINESVILLE    MOSUNNY   83  67  58 W10       29.97F
6HR MIN TEMP:  68; 6HR MAX TEMP:  84;

CARTERSVILLE   SUNNY     84  67  56 VRB3      29.94F
6HR MIN TEMP:  65; 6HR MAX TEMP:  84;



CITY           SKY/WX    TMP DP  RH WIND       PRES   REMARKS
DALTON*        MOSUNNY   77  66  69 NW6       29.95F
LAWRENCEVILLE* MOSUNNY   84  66  54 W7        29.94F
MARIETTA       PTSUNNY   83  66  55 W5        29.94F
KENNESAW*      MOSUNNY   84  64  51 W6        29.90F
CANTON*        PTSUNNY   82  59  44 W6        29.96F
BLAIRSVILLE*     N/A    N/A N/A N/A MISG      29.98F
$$

GAZ059>098-102>109-271900-
CENTRAL GEORGIA

CITY           SKY/WX    TMP DP  RH WIND       PRES   REMARKS
AUGUSTA-BUSH   MOSUNNY   85  67  54 SW3       29.91F
6HR MIN TEMP:  67; 6HR MAX TEMP:  86;

AUGUSTA-DANIEL SUNNY     87  64  46 VRB5      29.93F
6HR MIN TEMP:  70; 6HR MAX TEMP:  87;

COLUMBUS       CLOUDY    86  64  47 MISG      29.93F
6HR MIN TEMP:  69; 6HR MAX TEMP:  87;

MACON          MOSUNNY   88  64  44 CALM      29.92F
6HR MIN TEMP:  66; 6HR MAX TEMP:  90;

ROBINS AFB     MOSUNNY   85  68  56 VRB3      29.92F


CITY           SKY/WX    TMP DP  RH WIND       PRES   REMARKS
LAGRANGE*      CLOUDY    90  71  53 W6        29.94F HX  96
MILLEDGEVILLE* SUNNY     86  72  62 CALM      29.92F HX  92
$$

GAZ099>101-110>166-271900-
SOUTH GEORGIA

CITY           SKY/WX    TMP DP  RH WIND       PRES   REMARKS
SAVANNAH       PTSUNNY   89  68  49 NE8       29.91F HX  93
6HR MIN TEMP:  71; 6HR MAX TEMP:  89;

VALDOSTA       MOSUNNY   87  68  52 CALM      29.93F HX  90
6HR MIN TEMP:  68; 6HR MAX TEMP:  88;

ALMA           MOSUNNY   86  69  56 NW6       29.93F HX  90
6HR MIN TEMP:  68; 6HR MAX TEMP:  87;

ST SIMONS      PTSUNNY   83  72  69 E10       29.92F
6HR MIN TEMP:  72; 6HR MAX TEMP:  86;

FT STEWART     MOSUNNY   86  69  57 VRB5      29.89F
ALBANY         MOSUNNY   86  68  54 CALM      29.95F
HUNTER AFB     MOSUNNY   86  76  73 VRB3      29.89F HX  96
MOODY AFB      MOSUNNY   86  67  52 N6        29.92F
BRUNSWICK      MOSUNNY   86  73  66 CALM      29.92F HX  93


CITY           SKY/WX    TMP DP  RH WIND       PRES   REMARKS
BAINBRIDGE*    MOSUNNY   88  70  55 CALM      29.93F HX  92
MOULTRIE*      MOSUNNY   84  70  61 E5        29.95F
VIDALIA*       MOSUNNY   86  72  62 NW5       29.94F HX  92
WAYCROSS*      MOSUNNY   90  71  53 CALM      29.92F HX  96
DOUGLAS*       PTSUNNY   86  64  48 CALM      29.95F
$$




USA.gov is the U.S. government's official web portal to all federal, state and local government web resources and services.